Weather History for KGCD - January, 2013

Change the Weather History Date:

Sunday, January 6, 2013

  Actual Average (KBNO) Record (KBNO)
Temperature  
Mean Temperature 30 °F 24 °F  
Max Temperature 33 °F 34 °F 51 °F (1948)
Min Temperature 26 °F 14 °F -27 °F (1982)
Degree Days  
Heating Degree Days 36 41  
Month to date heating degree days 246  
Since 1 July heating degree days 3513  
Cooling Degree Days 0 0  
Month to date cooling degree days 0  
Year to date cooling degree days 0  
Moisture  
Dew Point 25 °F    
Average Humidity 85    
Maximum Humidity 100    
Minimum Humidity 69    
Precipitation  
Precipitation 0.00 in 0.04 in 0.34 in (2002)
Month to date precipitation 0.26  
Year to date precipitation 0.26  
Sea Level Pressure  
Sea Level Pressure 30.12 in    
Wind  
Wind Speed 6 mph (East)    
Max Wind Speed 12 mph    
Max Gust Speed 16 mph    
Visibility 9 miles    
Events Snow    
T = Trace of Precipitation, MM = Missing Value Source: NWS Daily Summary

Daily Weather History Graph

Daily Weather History Graph

Search for Another Location

Airport or City:

Trip Planner

Search our weather history database for the weather conditions in past years. The results will help you decide how hot, cold, wet, or windy it might be!

Date:

Astronomy

Jan. 06, 2013 Rise Set
Actual Time 7:31 AM PST 4:32 PM PST
Civil Twilight 6:58 AM PST 5:05 PM PST
Nautical Twilight 6:22 AM PST 5:41 PM PST
Astronomical Twilight 5:47 AM PST 6:16 PM PST
Moon 1:46 AM PST (1/6) 12:07 PM PST (1/6)
Length of Visible Light 10h 06m
Length of Day
9h 00m
Waning Crescent, 32% of the Moon is Illuminated
Jan 6
Waning Crescent
Jan 11
New
Jan 18
First Quarter
Jan 26
Full
Feb 3
Last Quarter

Hourly Weather History & Observations

Time (PST) Temp. Windchill Dew Point Humidity Pressure Visibility Wind Dir Wind Speed Gust Speed Precip Events Conditions
12:15 AM 26.6 °F 19.1 °F 19.4 °F 74% 30.14 in 10.0 mi East 6.9 mph - N/A   Mostly Cloudy
12:35 AM 26.6 °F 19.1 °F 19.4 °F 74% 30.14 in 10.0 mi East 6.9 mph - N/A   Scattered Clouds
12:55 AM 28.4 °F 19.7 °F 19.4 °F 69% 30.14 in 10.0 mi ESE 9.2 mph - N/A   Overcast
1:15 AM 28.4 °F 24.6 °F 21.2 °F 74% 30.14 in 10.0 mi ESE 3.5 mph - N/A   Overcast
1:35 AM 28.4 °F 23.3 °F 21.2 °F 74% 30.13 in 10.0 mi East 4.6 mph - N/A   Overcast
1:55 AM 28.4 °F 20.4 °F 21.2 °F 74% 30.13 in 10.0 mi ESE 8.1 mph - N/A   Overcast
2:15 AM 28.4 °F 19.7 °F 21.2 °F 74% 30.12 in 10.0 mi East 9.2 mph - N/A   Overcast
2:35 AM 28.4 °F 19.1 °F 21.2 °F 74% 30.12 in 10.0 mi East 10.4 mph - N/A   Overcast
2:55 AM 28.4 °F 20.4 °F 21.2 °F 74% 30.12 in 10.0 mi East 8.1 mph - N/A   Overcast
3:15 AM 28.4 °F 18.5 °F 21.2 °F 74% 30.10 in 10.0 mi ENE 11.5 mph - N/A   Overcast
3:35 AM 28.4 °F 19.7 °F 21.2 °F 74% 30.10 in 10.0 mi East 9.2 mph - N/A   Overcast
3:55 AM 28.4 °F 19.7 °F 21.2 °F 74% 30.10 in 10.0 mi East 9.2 mph - N/A   Overcast
4:15 AM 28.4 °F 21.2 °F 21.2 °F 74% 30.10 in 10.0 mi East 6.9 mph - N/A   Overcast
4:35 AM 28.4 °F 24.6 °F 19.4 °F 69% 30.10 in 10.0 mi ENE 3.5 mph - N/A   Overcast
4:55 AM 28.4 °F 20.4 °F 23.0 °F 80% 30.11 in 10.0 mi West 8.1 mph - N/A   Overcast
5:15 AM 28.4 °F 20.4 °F 23.0 °F 80% 30.11 in 10.0 mi WSW 8.1 mph - N/A   Overcast
5:35 AM 28.4 °F 21.2 °F 23.0 °F 80% 30.11 in 10.0 mi West 6.9 mph - N/A   Overcast
5:55 AM 28.4 °F 23.3 °F 23.0 °F 80% 30.11 in 10.0 mi WSW 4.6 mph - N/A   Overcast
6:15 AM 30.2 °F 25.4 °F 23.0 °F 75% 30.11 in 10.0 mi WSW 4.6 mph - N/A   Overcast
6:35 AM 28.4 °F 24.6 °F 23.0 °F 80% 30.12 in 10.0 mi NNW 3.5 mph - N/A   Overcast
6:55 AM 28.4 °F - 23.0 °F 80% 30.12 in 7.0 mi Calm Calm - N/A   Overcast
7:15 AM 28.4 °F 23.3 °F 24.8 °F 86% 30.12 in 3.0 mi East 4.6 mph - N/A Snow Light Snow
7:35 AM 28.4 °F 24.6 °F 26.6 °F 93% 30.14 in 3.0 mi ENE 3.5 mph - N/A   Overcast
7:55 AM 28.4 °F 22.2 °F 26.6 °F 93% 30.14 in 2.0 mi East 5.8 mph - N/A Snow Light Snow
8:15 AM 28.4 °F - 26.6 °F 93% 30.15 in 3.0 mi Calm Calm - N/A   Overcast
8:35 AM 28.4 °F 24.6 °F 26.6 °F 93% 30.16 in 2.0 mi East 3.5 mph - N/A Snow Light Snow
8:55 AM 28.4 °F - 26.6 °F 93% 30.17 in 2.0 mi Calm Calm - N/A Snow Light Snow
9:15 AM 28.4 °F 19.7 °F 28.4 °F 100% 30.14 in 2.0 mi ESE 9.2 mph - N/A   Overcast
9:35 AM 28.4 °F 22.2 °F 28.4 °F 100% 30.15 in 5.0 mi NE 5.8 mph - N/A   Mostly Cloudy
9:55 AM 28.4 °F 21.2 °F 26.6 °F 93% 30.16 in 7.0 mi ENE 6.9 mph - N/A   Mostly Cloudy
10:15 AM 30.2 °F 22.6 °F 28.4 °F 93% 30.15 in 7.0 mi East 8.1 mph - N/A   Overcast
10:35 AM 30.2 °F 23.4 °F 28.4 °F 93% 30.15 in 10.0 mi East 6.9 mph - N/A   Overcast
10:55 AM 32.0 °F 28.7 °F 28.4 °F 87% 30.15 in 10.0 mi East 3.5 mph - N/A   Overcast
11:15 AM 32.0 °F 25.6 °F 28.4 °F 87% 30.14 in 10.0 mi East 6.9 mph - N/A   Overcast
11:35 AM 32.0 °F 27.5 °F 28.4 °F 87% 30.13 in 10.0 mi ENE 4.6 mph - N/A   Overcast
11:55 AM 32.0 °F - 28.4 °F 87% 30.12 in 10.0 mi Calm Calm - N/A   Overcast
12:15 PM 32.0 °F - 28.4 °F 87% 30.12 in 10.0 mi Calm Calm - N/A   Overcast
12:35 PM 32.0 °F - 28.4 °F 87% 30.11 in 10.0 mi Calm Calm - N/A   Overcast
12:55 PM 32.0 °F - 28.4 °F 87% 30.11 in 10.0 mi Calm Calm - N/A   Overcast
1:15 PM 33.8 °F - 28.4 °F 81% 30.11 in 10.0 mi Calm Calm - N/A   Overcast
1:35 PM 33.8 °F - 28.4 °F 81% 30.10 in 10.0 mi Calm Calm - N/A   Overcast
1:55 PM 33.8 °F - 28.4 °F 81% 30.09 in 10.0 mi Calm Calm - N/A   Overcast
2:15 PM 33.8 °F - 30.2 °F 87% 30.09 in 10.0 mi Calm Calm - N/A   Overcast
2:35 PM 33.8 °F 30.8 °F 28.4 °F 81% 30.09 in 10.0 mi ENE 3.5 mph - N/A   Mostly Cloudy
2:55 PM 33.8 °F 28.6 °F 30.2 °F 87% 30.09 in 10.0 mi East 5.8 mph - N/A   Mostly Cloudy
3:15 PM 33.8 °F 27.7 °F 30.2 °F 87% 30.09 in 10.0 mi East 6.9 mph - N/A   Scattered Clouds
3:35 PM 33.8 °F 28.6 °F 28.4 °F 81% 30.10 in 7.0 mi East 5.8 mph - N/A   Clear
3:55 PM 32.0 °F 27.5 °F 28.4 °F 87% 30.10 in 10.0 mi ENE 4.6 mph - N/A   Clear
4:15 PM 32.0 °F 27.5 °F 28.4 °F 87% 30.11 in 10.0 mi East 4.6 mph - N/A   Clear
4:35 PM 32.0 °F 27.5 °F 28.4 °F 87% 30.11 in 10.0 mi East 4.6 mph - N/A   Clear
4:55 PM 30.2 °F 26.7 °F 26.6 °F 86% 30.10 in 10.0 mi East 3.5 mph - N/A   Clear
5:15 PM 30.2 °F 25.4 °F 28.4 °F 93% 30.10 in 7.0 mi East 4.6 mph - N/A   Clear
5:35 PM 30.2 °F 23.4 °F 26.6 °F 86% 30.10 in 10.0 mi East 6.9 mph - N/A   Clear
5:55 PM 30.2 °F 23.4 °F 26.6 °F 86% 30.10 in 10.0 mi ESE 6.9 mph - N/A   Clear
6:15 PM 28.4 °F 21.2 °F 26.6 °F 93% 30.12 in 10.0 mi East 6.9 mph - N/A   Clear
6:35 PM 28.4 °F 20.4 °F 26.6 °F 93% 30.12 in 10.0 mi East 8.1 mph - N/A   Clear
6:55 PM 28.4 °F 20.4 °F 26.6 °F 93% 30.12 in 10.0 mi ESE 8.1 mph - N/A   Clear
7:15 PM 28.4 °F 21.2 °F 26.6 °F 93% 30.12 in 10.0 mi SE 6.9 mph - N/A   Clear
7:55 PM 26.6 °F 18.2 °F 24.8 °F 93% 30.11 in 10.0 mi East 8.1 mph - N/A   Clear
8:15 PM 26.6 °F 18.2 °F 24.8 °F 93% 30.12 in 10.0 mi East 8.1 mph - N/A   Clear
8:35 PM 26.6 °F 17.5 °F 23.0 °F 86% 30.11 in 10.0 mi ESE 9.2 mph - N/A   Clear
8:55 PM 26.6 °F 16.8 °F 24.8 °F 93% 30.11 in 10.0 mi East 10.4 mph - N/A   Clear
9:35 PM 26.6 °F 21.2 °F 23.0 °F 86% 30.12 in 10.0 mi East 4.6 mph - N/A   Clear
9:55 PM 28.4 °F 22.2 °F 24.8 °F 86% 30.12 in 10.0 mi East 5.8 mph - N/A   Clear
10:15 PM 28.4 °F 19.1 °F 24.8 °F 86% 30.12 in 10.0 mi SSE 10.4 mph - N/A   Clear
10:35 PM 32.0 °F 27.5 °F 26.6 °F 80% 30.12 in 10.0 mi ESE 4.6 mph 16.1 mph N/A   Clear
10:55 PM 30.2 °F - 26.6 °F 86% 30.12 in 10.0 mi Calm Calm - N/A   Scattered Clouds
11:15 PM 28.4 °F 21.2 °F 24.8 °F 86% 30.12 in 10.0 mi East 6.9 mph - N/A   Overcast
11:35 PM 28.4 °F 18.5 °F 23.0 °F 80% 30.10 in 10.0 mi East 11.5 mph - N/A   Mostly Cloudy
11:55 PM 28.4 °F 19.7 °F 26.6 °F 93% 30.09 in 10.0 mi East 9.2 mph 16.1 mph N/A   Mostly Cloudy